Home > Weather > Exeter > Past weeks

Flag for United Kingdom Past Weather in Exeter, England, United Kingdom — Yesterday and Last 2 Weeks

Now
57 °F

Scattered clouds.


Feels Like: 54 °F
Forecast: 54 / 61 °F
Wind: 14 mph from South

Location: Exeter Airport

Current Time: Jun 28, 2016 at 4:12:23 PM

Latest Report: Jun 28, 2016 at 3:20 PM


Visibility: N/A

Pressure: 29.83 "Hg

Humidity: 94%

Dew Point: 55 °F

Location of ExeterLocation

Past Weather in Exeter — Graph

°F

Exeter Temperature Yesterday

Maximum temperature yesterday: 66 °F (at 12:20 PM)
Minimum temperature yesterday: 54 °F (at 11:50 PM)
Average temperature yesterday: 61 °F

High & Low Weather Summary for the Past Weeks

 TemperatureHumidityPressure
High72 °F (Jun 16, 2:20 PM)100% (Jun 15, 6:50 PM)30.27 "Hg (Jun 15, 6:50 PM)
Low45 °F (Jun 28, 5:50 AM)52% (Jun 24, 4:20 PM)29.39 "Hg (Jun 15, 5:20 AM)
Average60 °F82%29.93 "Hg
* Reported Jun 13 3:20 PM — Jun 28 3:20 PM, Exeter, Weather by CustomWeather, © 2016

Note: Actual official high and low records may vary slightly from our data, if they occured in-between our weather recording intervals... More about our weather records

Advertising

Exeter Weather History for the Previous 24 Hours

Scroll right to see more
 ConditionsComfort  
Time TempWeatherWind HumidityBarometerVisibility
3:20 PM
Tue, Jun 28
57 °FScattered clouds.14 mph94%29.83 "HgN/A
2:20 PM57 °FScattered clouds.16 mph94%29.86 "HgN/A
1:50 PM57 °FSprinkles. Scattered clouds.15 mph94%29.89 "HgN/A
1:20 PM57 °FSprinkles. Scattered clouds.18 mph88%29.89 "HgN/A
12:50 PM57 °FScattered clouds.14 mph88%29.92 "HgN/A
12:20 PM59 °FScattered clouds.14 mph82%29.95 "HgN/A
11:50 AM61 °FScattered clouds.17 mph72%29.95 "HgN/A
11:20 AM61 °FScattered clouds.15 mph72%29.95 "HgN/A
10:50 AM61 °FScattered clouds.14 mph72%29.98 "HgN/A
10:20 AM61 °FPassing clouds.10 mph72%29.98 "HgN/A
9:50 AM59 °FPassing clouds.12 mph77%30.01 "HgN/A
9:20 AM59 °FPassing clouds.9 mph77%30.01 "HgN/A
8:50 AM57 °FPassing clouds.9 mph82%30.04 "HgN/A
8:20 AM57 °FPassing clouds.8 mph82%30.04 "HgN/A
7:50 AM54 °FPassing clouds.3 mph94%30.04 "HgN/A
7:20 AM52 °FSunny.No wind94%30.04 "Hg10 mi
6:50 AM48 °FSunny.2 mph94%30.07 "Hg10 mi
6:20 AM46 °FSunny.1 mph93%30.07 "Hg10 mi
5:50 AM45 °FClear.1 mph100%30.07 "Hg10 mi
1:50 AM52 °FClear.1 mph88%30.12 "Hg10 mi
1:20 AM52 °FClear.1 mph88%30.12 "Hg10 mi
12:50 AM54 °FClear.3 mph82%30.12 "Hg10 mi
12:20 AM54 °FClear.2 mph82%30.12 "Hg10 mi
11:50 PM
Mon, Jun 27
54 °FClear.2 mph82%30.15 "Hg10 mi
11:20 PM55 °FClear.2 mph77%30.15 "Hg10 mi
10:50 PM55 °FClear.1 mph77%30.15 "Hg10 mi
10:20 PM55 °FSunny.2 mph77%30.15 "Hg10 mi
9:50 PM55 °FSunny.3 mph77%30.15 "Hg10 mi
9:20 PM57 °FSunny.7 mph72%30.15 "Hg10 mi
8:50 PM57 °FSunny.9 mph67%30.15 "Hg10 mi
8:20 PM59 °FSunny.9 mph63%30.12 "Hg10 mi
7:50 PM59 °FSunny.8 mph68%30.15 "Hg10 mi
7:20 PM59 °FSunny.10 mph68%30.12 "Hg10 mi
6:50 PM61 °FSunny.10 mph63%30.12 "Hg10 mi
6:20 PM61 °FSunny.9 mph63%30.12 "Hg10 mi
5:50 PM61 °FPassing clouds.10 mph59%30.12 "HgN/A
5:20 PM63 °FPassing clouds.13 mph59%30.12 "HgN/A
4:50 PM63 °FPassing clouds.12 mph59%30.15 "HgN/A
4:20 PM64 °FPassing clouds.16 mph56%30.12 "HgN/A
Weather by CustomWeather, © 2016

See weather overviewHow to use our weather pages